User: anonymous   Login
Location: Mentone
(34.5413°N, 85.5351°W)
Time: 19:02:05
(UTC-05:00)
Language:

Transit 2A Rocket - Orbit

View from above orbital plane
View from above orbital plane
View from above satellite
View from above satellite

Ground track
Ground track

The orbit data is extracted from the following two-line orbital elements,

1 00047U 60007C   16149.19049542  .00000013  00000-0  27939-4 0  9997
2 00047  66.6638 155.0083 0234757 305.7176  52.2286 14.41827365921555
Epoch (UTC): 28 May 2016 04:34:18
Eccentricity: 0.0234757
inclination: 66.6638°
perigee height: 585 km
apogee height: 920 km
right ascension of ascending node: 155.0083°
argument of perigee: 305.7176°
revolutions per day: 14.41827365
mean anomaly at epoch: 52.2286°
orbit number at epoch: 92155

The dashed part of the orbit path shows where the satellite is in the earth's shadow,  

DLR